TimeCST,TemperatureF,Dew PointF,Humidity,Sea Level PressureIn,VisibilityMPH,Wind Direction,Wind SpeedMPH,Gust SpeedMPH,PrecipitationIn,Events,Conditions,WindDirDegrees,DateUTC
1:53 AM,34.0,28.9,82,30.09,10.0,Calm,Calm,-,N/A,,Clear,0,2013-03-01 07:53:00
2:53 AM,32.0,28.0,85,30.08,10.0,Calm,Calm,-,N/A,,Clear,0,2013-03-01 08:53:00
3:53 AM,32.0,27.0,82,30.09,10.0,WNW,4.6,-,N/A,,Clear,290,2013-03-01 09:53:00
4:53 AM,30.9,27.0,85,30.09,10.0,Calm,Calm,-,N/A,,Clear,0,2013-03-01 10:53:00
6:53 AM,33.1,28.9,85,30.11,8.0,Calm,Calm,-,N/A,,Overcast,0,2013-03-01 12:53:00
8:53 AM,39.0,30.9,73,30.13,9.0,Calm,Calm,-,N/A,,Overcast,0,2013-03-01 14:53:00
9:53 AM,43.0,30.9,62,30.12,-9999.0,North,-9999.0,-,N/A,,Overcast,0,2013-03-01 15:53:00
10:53 AM,44.1,28.9,55,30.12,10.0,West,9.2,-,N/A,,Overcast,280,2013-03-01 16:53:00
12:53 PM,46.0,26.1,46,30.09,10.0,WNW,11.5,20.7,N/A,,Overcast,290,2013-03-01 18:53:00
1:53 PM,45.0,25.0,46,30.08,10.0,WNW,13.8,19.6,N/A,,Overcast,290,2013-03-01 19:53:00
2:53 PM,44.1,25.0,47,30.08,10.0,NW,8.1,19.6,N/A,,Overcast,310,2013-03-01 20:53:00
3:53 PM,42.1,26.1,53,30.09,10.0,WNW,10.4,19.6,N/A,,Overcast,290,2013-03-01 21:53:00
4:53 PM,39.9,26.1,58,30.10,10.0,WNW,9.2,-,N/A,,Overcast,290,2013-03-01 22:53:00
5:53 PM,39.9,26.1,58,30.12,10.0,WNW,10.4,21.9,N/A,,Overcast,300,2013-03-01 23:53:00
6:53 PM,39.9,26.1,58,30.13,10.0,WNW,8.1,-,N/A,,Overcast,300,2013-03-02 00:53:00
7:53 PM,39.0,26.1,60,30.14,10.0,WNW,8.1,-,N/A,,Overcast,300,2013-03-02 01:53:00
8:53 PM,39.0,27.0,62,30.14,10.0,NW,8.1,-,N/A,,Overcast,310,2013-03-02 02:53:00
9:53 PM,39.0,27.0,62,30.15,10.0,WNW,6.9,-,N/A,,Overcast,290,2013-03-02 03:53:00
10:53 PM,37.9,27.0,65,30.14,10.0,WNW,6.9,-,N/A,,Overcast,290,2013-03-02 04:53:00
11:53 PM,37.9,27.0,65,30.14,10.0,WNW,8.1,-,N/A,,Overcast,300,2013-03-02 05:53:00